This is the latest recevied weather packets stored in our database for station/object KC3ULW-13. If no packets are shown the sender has not sent any weather packets the latest 10 day(s).
| Time | Temp. | Humidity | Pressure | Rain* | Wind** | Luminosity | Snow |
|---|---|---|---|---|---|---|---|
| 1777662940 | 10.56° C | 73% | 1014.1 hPa | 0 mm | - | 181 W/m² | - |
| 1777662638 | 10.56° C | 72% | 1013.8 hPa | 0 mm | - | 91 W/m² | - |
| 1777662333 | 10.56° C | 71% | 1014.2 hPa | 0 mm | - | 110 W/m² | - |
| 1777662029 | 10.56° C | 73% | 1013.8 hPa | 0 mm | - | 128 W/m² | - |
| 1777661725 | 10.56° C | 72% | 1013.8 hPa | 0 mm | - | 105 W/m² | - |
| 1777661421 | 10.56° C | 71% | 1013.7 hPa | 0 mm | - | 150 W/m² | - |
| 1777661118 | 11.11° C | 70% | 1013.8 hPa | 0 mm | - | 157 W/m² | - |
| 1777660818 | 11.11° C | 69% | 1014 hPa | 0 mm | - | 172 W/m² | - |
| 1777660515 | 11.67° C | 68% | 1014.1 hPa | 0 mm | - | 147 W/m² | - |
| 1777660211 | 11.67° C | 68% | 1014.1 hPa | 0 mm | - | 123 W/m² | - |
| 1777659908 | 11.67° C | 64% | 1014.1 hPa | 0 mm | - | 171 W/m² | - |
| 1777659605 | 11.67° C | 65% | 1014 hPa | 0 mm | - | 229 W/m² | - |
| 1777659302 | 11.67° C | 65% | 1013.9 hPa | 0 mm | - | 115 W/m² | - |
| 1777658999 | 11.67° C | 64% | 1014.1 hPa | 0 mm | - | 77 W/m² | - |
| 1777658696 | 12.22° C | 62% | 1014 hPa | 0 mm | - | 104 W/m² | - |
| 1777658392 | 12.78° C | 61% | 1013.8 hPa | 0 mm | - | 132 W/m² | - |
| 1777658089 | 12.78° C | 60% | 1013.7 hPa | 0 mm | - | 230 W/m² | - |
| 1777657786 | 12.78° C | 60% | 1013.7 hPa | 0 mm | - | 613 W/m² | - |
| 1777657484 | 12.78° C | 62% | 1013.4 hPa | 0 mm | - | 666 W/m² | - |
| 1777657181 | 12.22° C | 61% | 1013.5 hPa | 0 mm | - | 494 W/m² | - |
| 1777656879 | 11.67° C | 65% | 1013.8 hPa | 0 mm | - | 344 W/m² | - |
| 1777656574 | 11.11° C | 65% | 1013.9 hPa | 0 mm | - | 210 W/m² | - |
| 1777656270 | 11.11° C | 66% | 1014.2 hPa | 0 mm | - | 117 W/m² | - |
| 1777655966 | 11.67° C | 65% | 1014.3 hPa | 0 mm | - | 120 W/m² | - |
| 1777655662 | 11.67° C | 63% | 1014.2 hPa | 0 mm | - | 130 W/m² | - |
* Rain latest hour (hover to see other rain measurements)
** Current wind speed in m/s (hover to see current wind gust speed)